Starlink 33558

operational
NORAD ID: 63643 Int'l Des: 2025-083 Owner: SPXS Country: US Constellation: starlink
LEOCIRCULAR

About Starlink 33558

Description loading...

Live Position

Loading 3D Globe...

Upcoming Passes

Altitude History

Altitude vs Time

uPlot chart will show altitude changes over time

Two-Line Element Set

1 63643U 25083K 25305.55659378 .00038571 00000-0 14041-2 0 9999
2 63643 43.0030 8.5750 0001442 250.4669 109.6027 15.27573324 30470
Epoch: Nov 1, 2025 • Age: 15 hours

Current Status

Altitude 485.8 km
Velocity 7.63 km/s
Sub-Earth Point 38.32°N, 26.29°E
Launch Date Apr 25, 2025
Age 0.5 years
Type internet

Technical Details

Classification Payload
Mass 575.00 kg
Dry Mass 530.00 kg
Total Mass 575.00 kg
Length 0.30 m
Diameter 4.10 m
Span 29.00 m
Shape Box + pan
Manufacturer SPXS
Bus Type Starlink V2MO
Phase Status In Orbit
Owner/State SPXS/US

Large Constellations

Loading constellations...